2020-053A (45985 NORAD) Tracking and Keplerian Element Data

This shows tracking and keplerian element data for the satellite.

Feedback or suggestion? Click here.




ElementValue
Catalog45985
Name2020-053A
Epoch Orbit137
Epoch Day338.55118882
Epoch Year2020
RAAN253.3324
Inclination0.2186
Eccentricity0.1107913
Argument of Perigee208.1132
Mean Anonmoly275.8918
Mean Motion1.00334709
Decay Rate-3.4E-06
L11 45985U 20053A 20338.55118882 -.00000340 00000-0 10000-3 0 9997
L22 45985 0.2186 253.3324 1107913 208.1132 275.8918 1.00334709 1379

Live tracking and technical data element details for 2020-053A (NORAD 45985). 2020-053A can be tracked NOW for your location showing map with azimuth and elevation plus other details from your city location.

Track the satellite on the map from your city or location and see movement details for azimuth, elevation, latitude, longitude, range, height, and movement on the map or in text.







IsCatalogInMostPopularTable: catalog: 45985, numindb: 18
Update: records affected: 1



GetName: 45985 2020-053A

Hit Count: updated at: Sun, 06 Dec 2020 00:32:29 GMT